PROGRESS-MS 18

Last updated on Tue May 31 2022 00:02:06 GMT+0000 (Coordinated Universal Time)

1 49379U 21098A 22150.51673611 .00010098 00000+0 18607-3 0 9994 2 49379 51.6435 64.1085 0004871 174.0045 187.8531 15.49779317342446
UTC large
Height (km)
Speed (km/s)
/
Latitude / Longitude
Inclination (degrees)
Orbital Period (minutes)
Azimuth
Elevation
Range (km)
Doppler Factor

Next 0 passes for location: London (51.5072 / 0.1276)

Sorry there are no passes over London.